Year,Month,Day,Hour,Minute,Value (Times are PST for temperature in C)
2006,10,10,00,00,4.40
2006,10,10,00,01,4.30
2006,10,10,00,02,4.30
2006,10,10,00,03,4.30
2006,10,10,00,04,4.20
2006,10,10,00,05,4.30
2006,10,10,00,06,4.30
2006,10,10,00,07,4.30
2006,10,10,00,08,4.30
2006,10,10,00,09,4.30
2006,10,10,00,10,4.30
2006,10,10,00,11,4.30
2006,10,10,00,12,4.30
2006,10,10,00,13,4.30
2006,10,10,00,14,4.30
2006,10,10,00,15,4.30
2006,10,10,00,16,4.30
2006,10,10,00,17,4.30
2006,10,10,00,18,4.30
2006,10,10,00,19,4.30
2006,10,10,00,20,4.30
2006,10,10,00,21,4.30
2006,10,10,00,22,4.30
2006,10,10,00,23,4.40
2006,10,10,00,24,4.50
2006,10,10,00,25,4.50
2006,10,10,00,26,4.60
2006,10,10,00,27,4.60
2006,10,10,00,28,4.60
2006,10,10,00,29,4.60
2006,10,10,00,30,4.50
2006,10,10,00,31,4.50
2006,10,10,00,32,4.50
2006,10,10,00,33,4.40
2006,10,10,00,34,4.40
2006,10,10,00,35,4.40
2006,10,10,00,36,4.30
2006,10,10,00,37,4.30
2006,10,10,00,38,4.20
2006,10,10,00,39,4.20
2006,10,10,00,40,4.20
2006,10,10,00,41,4.20
2006,10,10,00,42,4.10
2006,10,10,00,43,4.00
2006,10,10,00,44,4.00
2006,10,10,00,45,3.90
2006,10,10,00,46,3.90
2006,10,10,00,47,3.80
2006,10,10,00,48,3.80
2006,10,10,00,49,3.80
2006,10,10,00,50,3.70
2006,10,10,00,51,3.70
2006,10,10,00,52,3.70
2006,10,10,00,53,3.60
2006,10,10,00,54,3.60
2006,10,10,00,55,3.60
2006,10,10,00,56,3.60
2006,10,10,00,57,3.50
2006,10,10,00,58,3.50
2006,10,10,00,59,3.50
2006,10,10,01,00,3.50
2006,10,10,01,01,3.50
2006,10,10,01,02,3.50
2006,10,10,01,03,3.50
2006,10,10,01,04,3.50
2006,10,10,01,05,3.60
2006,10,10,01,06,3.60
2006,10,10,01,07,3.60
2006,10,10,01,08,3.60
2006,10,10,01,09,3.70
2006,10,10,01,10,3.70
2006,10,10,01,11,3.80
2006,10,10,01,12,3.80
2006,10,10,01,13,3.80
2006,10,10,01,14,3.80
2006,10,10,01,15,3.80
2006,10,10,01,16,3.90
2006,10,10,01,17,3.90
2006,10,10,01,18,3.90
2006,10,10,01,19,3.90
2006,10,10,01,20,3.80
2006,10,10,01,21,3.80
2006,10,10,01,22,3.80
2006,10,10,01,23,3.80
2006,10,10,01,24,3.80
2006,10,10,01,25,3.80
2006,10,10,01,26,3.80
2006,10,10,01,27,3.70
2006,10,10,01,28,3.70
2006,10,10,01,29,3.60
2006,10,10,01,30,3.50
2006,10,10,01,31,3.50
2006,10,10,01,32,3.50
2006,10,10,01,33,3.40
2006,10,10,01,34,3.40
2006,10,10,01,35,3.40
2006,10,10,01,36,3.40
2006,10,10,01,37,3.40
2006,10,10,01,38,3.40
2006,10,10,01,39,3.40
2006,10,10,01,40,3.40
2006,10,10,01,41,3.40
2006,10,10,01,42,3.40
2006,10,10,01,43,3.40
2006,10,10,01,44,3.40
2006,10,10,01,45,3.40
2006,10,10,01,46,3.40
2006,10,10,01,47,3.50
2006,10,10,01,48,3.50
2006,10,10,01,49,3.50
2006,10,10,01,50,3.60
2006,10,10,01,51,3.70
2006,10,10,01,52,3.70
2006,10,10,01,53,3.80
2006,10,10,01,54,3.80
2006,10,10,01,55,3.80
2006,10,10,01,56,3.80
2006,10,10,01,57,3.80
2006,10,10,01,58,3.80
2006,10,10,01,59,3.70
2006,10,10,02,00,3.70
2006,10,10,02,01,3.60
2006,10,10,02,02,3.60
2006,10,10,02,03,3.50
2006,10,10,02,04,3.50
2006,10,10,02,05,3.40
2006,10,10,02,06,3.40
2006,10,10,02,07,3.40
2006,10,10,02,08,3.30
2006,10,10,02,09,3.30
2006,10,10,02,10,3.30
2006,10,10,02,11,3.20
2006,10,10,02,12,3.20
2006,10,10,02,13,3.10
2006,10,10,02,14,3.10
2006,10,10,02,15,3.10
2006,10,10,02,16,2.90
2006,10,10,02,17,2.90
2006,10,10,02,18,2.90
2006,10,10,02,19,2.90
2006,10,10,02,20,2.90
2006,10,10,02,21,2.90
2006,10,10,02,22,2.90
2006,10,10,02,23,2.90
2006,10,10,02,24,2.90
2006,10,10,02,25,2.90
2006,10,10,02,26,2.90
2006,10,10,02,27,2.90
2006,10,10,02,28,3.00
2006,10,10,02,29,3.10
2006,10,10,02,30,3.20
2006,10,10,02,31,3.30
2006,10,10,02,32,3.30
2006,10,10,02,33,3.50
2006,10,10,02,34,3.50
2006,10,10,02,35,3.60
2006,10,10,02,36,3.60
2006,10,10,02,37,3.60
2006,10,10,02,38,3.60
2006,10,10,02,39,3.50
2006,10,10,02,40,3.50
2006,10,10,02,41,3.40
2006,10,10,02,42,3.40
2006,10,10,02,43,3.30
2006,10,10,02,44,3.20
2006,10,10,02,45,3.10
2006,10,10,02,46,3.00
2006,10,10,02,47,2.90
2006,10,10,02,48,2.90
2006,10,10,02,49,2.80
2006,10,10,02,50,2.80
2006,10,10,02,51,2.70
2006,10,10,02,52,2.70
2006,10,10,02,53,2.70
2006,10,10,02,54,2.70
2006,10,10,02,55,2.70
2006,10,10,02,56,2.70
2006,10,10,02,57,2.70
2006,10,10,02,58,2.70
2006,10,10,02,59,2.70
2006,10,10,03,00,2.70
2006,10,10,03,01,2.80
2006,10,10,03,02,2.90
2006,10,10,03,03,2.90
2006,10,10,03,04,3.00
2006,10,10,03,05,3.10
2006,10,10,03,06,3.10
2006,10,10,03,07,3.10
2006,10,10,03,08,3.10
2006,10,10,03,09,3.10
2006,10,10,03,10,3.00
2006,10,10,03,11,2.90
2006,10,10,03,12,2.90
2006,10,10,03,13,2.90
2006,10,10,03,14,2.90
2006,10,10,03,15,2.80
2006,10,10,03,16,2.80
2006,10,10,03,17,2.80
2006,10,10,03,18,2.80
2006,10,10,03,19,2.70
2006,10,10,03,20,2.70
2006,10,10,03,21,2.70
2006,10,10,03,22,2.70
2006,10,10,03,23,2.70
2006,10,10,03,24,2.70
2006,10,10,03,25,2.70
2006,10,10,03,26,2.70
2006,10,10,03,27,2.70
2006,10,10,03,28,2.70
2006,10,10,03,29,2.70
2006,10,10,03,30,2.80
2006,10,10,03,31,2.80
2006,10,10,03,32,2.80
2006,10,10,03,33,2.90
2006,10,10,03,34,2.90
2006,10,10,03,35,2.90
2006,10,10,03,36,3.00
2006,10,10,03,37,3.10
2006,10,10,03,38,3.10
2006,10,10,03,39,3.10
2006,10,10,03,40,3.10
2006,10,10,03,41,3.10
2006,10,10,03,42,3.10
2006,10,10,03,43,3.10
2006,10,10,03,44,3.00
2006,10,10,03,45,2.90
2006,10,10,03,46,2.90
2006,10,10,03,47,2.90
2006,10,10,03,48,2.90
2006,10,10,03,49,2.90
2006,10,10,03,50,2.90
2006,10,10,03,51,2.80
2006,10,10,03,52,2.80
2006,10,10,03,53,2.80
2006,10,10,03,54,2.70
2006,10,10,03,55,2.70
2006,10,10,03,56,2.70
2006,10,10,03,57,2.80
2006,10,10,03,58,2.80
2006,10,10,03,59,2.80
2006,10,10,04,00,2.80
2006,10,10,04,01,2.80
2006,10,10,04,02,2.80
2006,10,10,04,03,2.80
2006,10,10,04,04,2.80
2006,10,10,04,05,2.70
2006,10,10,04,06,2.70
2006,10,10,04,07,2.70
2006,10,10,04,08,2.70
2006,10,10,04,09,2.70
2006,10,10,04,10,2.60
2006,10,10,04,11,2.60
2006,10,10,04,12,2.60
2006,10,10,04,13,2.50
2006,10,10,04,14,2.50
2006,10,10,04,15,2.50
2006,10,10,04,16,2.50
2006,10,10,04,17,2.50
2006,10,10,04,18,2.50
2006,10,10,04,19,2.40
2006,10,10,04,20,2.40
2006,10,10,04,21,2.40
2006,10,10,04,22,2.40
2006,10,10,04,23,2.30
2006,10,10,04,24,2.30
2006,10,10,04,25,2.30
2006,10,10,04,26,2.30
2006,10,10,04,27,2.40
2006,10,10,04,28,2.40
2006,10,10,04,29,2.50
2006,10,10,04,30,2.50
2006,10,10,04,31,2.50
2006,10,10,04,32,2.60
2006,10,10,04,33,2.60
2006,10,10,04,34,2.60
2006,10,10,04,35,2.60
2006,10,10,04,36,2.60
2006,10,10,04,37,2.60
2006,10,10,04,38,2.50
2006,10,10,04,39,2.50
2006,10,10,04,40,2.50
2006,10,10,04,41,2.50
2006,10,10,04,42,2.40
2006,10,10,04,43,2.40
2006,10,10,04,44,2.40
2006,10,10,04,45,2.40
2006,10,10,04,46,2.30
2006,10,10,04,47,2.30
2006,10,10,04,48,2.30
2006,10,10,04,49,2.20
2006,10,10,04,50,2.20
2006,10,10,04,51,2.20
2006,10,10,04,52,2.20
2006,10,10,04,53,2.20
2006,10,10,04,54,2.20
2006,10,10,04,55,2.20
2006,10,10,04,56,2.20
2006,10,10,04,57,2.30
2006,10,10,04,58,2.40
2006,10,10,04,59,2.40
2006,10,10,05,00,2.50
2006,10,10,05,01,2.60
2006,10,10,05,02,2.70
2006,10,10,05,03,2.70
2006,10,10,05,04,2.80
2006,10,10,05,05,2.70
2006,10,10,05,06,2.70
2006,10,10,05,07,2.60
2006,10,10,05,08,2.40
2006,10,10,05,09,2.30
2006,10,10,05,10,2.30
2006,10,10,05,11,2.20
2006,10,10,05,12,2.20
2006,10,10,05,13,2.10
2006,10,10,05,14,2.10
2006,10,10,05,15,2.10
2006,10,10,05,16,2.10
2006,10,10,05,17,2.10
2006,10,10,05,18,2.10
2006,10,10,05,19,2.20
2006,10,10,05,20,2.20
2006,10,10,05,21,2.20
2006,10,10,05,22,2.30
2006,10,10,05,23,2.30
2006,10,10,05,24,2.30
2006,10,10,05,25,2.30
2006,10,10,05,26,2.30
2006,10,10,05,27,2.30
2006,10,10,05,28,2.30
2006,10,10,05,29,2.30
2006,10,10,05,30,2.30
2006,10,10,05,31,2.30
2006,10,10,05,32,2.30
2006,10,10,05,33,2.30
2006,10,10,05,34,2.20
2006,10,10,05,35,2.20
2006,10,10,05,36,2.20
2006,10,10,05,37,2.20
2006,10,10,05,38,2.20
2006,10,10,05,39,2.10
2006,10,10,05,40,2.10
2006,10,10,05,41,2.10
2006,10,10,05,42,2.10
2006,10,10,05,43,2.00
2006,10,10,05,44,2.00
2006,10,10,05,45,2.00
2006,10,10,05,46,2.00
2006,10,10,05,47,2.00
2006,10,10,05,48,1.90
2006,10,10,05,49,1.90
2006,10,10,05,50,1.90
2006,10,10,05,51,1.90
2006,10,10,05,52,1.90
2006,10,10,05,53,1.90
2006,10,10,05,54,1.90
2006,10,10,05,55,1.90
2006,10,10,05,56,1.90
2006,10,10,05,57,1.90
2006,10,10,05,58,1.90
2006,10,10,05,59,1.90
2006,10,10,06,00,1.90
2006,10,10,06,01,2.00
2006,10,10,06,02,2.10
2006,10,10,06,03,2.20
2006,10,10,06,04,2.30
2006,10,10,06,05,2.40
2006,10,10,06,06,2.40
2006,10,10,06,07,2.60
2006,10,10,06,08,2.70
2006,10,10,06,09,2.70
2006,10,10,06,10,2.70
2006,10,10,06,11,2.70
2006,10,10,06,12,2.70
2006,10,10,06,13,2.70
2006,10,10,06,14,2.70
2006,10,10,06,15,2.70
2006,10,10,06,16,2.70
2006,10,10,06,17,2.60
2006,10,10,06,18,2.60
2006,10,10,06,19,2.60
2006,10,10,06,20,2.50
2006,10,10,06,21,2.40
2006,10,10,06,22,2.30
2006,10,10,06,23,2.30
2006,10,10,06,24,2.20
2006,10,10,06,25,2.20
2006,10,10,06,26,2.20
2006,10,10,06,27,2.20
2006,10,10,06,28,2.20
2006,10,10,06,29,2.20
2006,10,10,06,30,2.20
2006,10,10,06,31,2.20
2006,10,10,06,32,2.20
2006,10,10,06,33,2.10
2006,10,10,06,34,2.10
2006,10,10,06,35,2.10
2006,10,10,06,36,2.00
2006,10,10,06,37,2.00
2006,10,10,06,38,2.00
2006,10,10,06,39,1.90
2006,10,10,06,40,1.90
2006,10,10,06,41,1.80
2006,10,10,06,42,1.80
2006,10,10,06,43,1.90
2006,10,10,06,44,2.00
2006,10,10,06,45,2.00
2006,10,10,06,46,2.10
2006,10,10,06,47,2.20
2006,10,10,06,48,2.20
2006,10,10,06,49,2.20
2006,10,10,06,50,2.20
2006,10,10,06,51,2.20
2006,10,10,06,52,2.10
2006,10,10,06,53,2.00
2006,10,10,06,54,2.00
2006,10,10,06,55,1.90
2006,10,10,06,56,1.80
2006,10,10,06,57,1.80
2006,10,10,06,58,1.80
2006,10,10,06,59,1.80
2006,10,10,07,00,1.80
2006,10,10,07,01,1.80
2006,10,10,07,02,1.80
2006,10,10,07,03,1.80
2006,10,10,07,04,1.90
2006,10,10,07,05,1.90
2006,10,10,07,06,1.90
2006,10,10,07,07,1.90
2006,10,10,07,08,1.90
2006,10,10,07,09,1.90
2006,10,10,07,10,2.00
2006,10,10,07,11,2.00
2006,10,10,07,12,2.00
2006,10,10,07,13,2.00
2006,10,10,07,14,2.00
2006,10,10,07,15,1.90
2006,10,10,07,16,1.80
2006,10,10,07,17,1.80
2006,10,10,07,18,1.70
2006,10,10,07,19,1.70
2006,10,10,07,20,1.70
2006,10,10,07,21,1.60
2006,10,10,07,22,1.60
2006,10,10,07,23,1.60
2006,10,10,07,24,1.70
2006,10,10,07,25,1.80
2006,10,10,07,26,1.80
2006,10,10,07,27,1.80
2006,10,10,07,28,1.90
2006,10,10,07,29,2.00
2006,10,10,07,30,2.00
2006,10,10,07,31,2.10
2006,10,10,07,32,2.20
2006,10,10,07,33,2.20
2006,10,10,07,34,2.20
2006,10,10,07,35,2.20
2006,10,10,07,36,2.30
2006,10,10,07,37,2.30
2006,10,10,07,38,2.30
2006,10,10,07,39,2.30
2006,10,10,07,40,2.30
2006,10,10,07,41,2.20
2006,10,10,07,42,2.20
2006,10,10,07,43,2.10
2006,10,10,07,44,2.10
2006,10,10,07,45,2.00
2006,10,10,07,46,2.00
2006,10,10,07,47,2.00
2006,10,10,07,48,1.90
2006,10,10,07,49,1.90
2006,10,10,07,50,1.90
2006,10,10,07,51,1.90
2006,10,10,07,52,1.90
2006,10,10,07,53,1.90
2006,10,10,07,54,1.90
2006,10,10,07,55,1.90
2006,10,10,07,56,2.00
2006,10,10,07,57,2.00
2006,10,10,07,58,2.00
2006,10,10,07,59,2.00
2006,10,10,08,00,2.10
2006,10,10,08,01,2.10
2006,10,10,08,02,2.10
2006,10,10,08,03,2.20
2006,10,10,08,04,2.20
2006,10,10,08,05,2.20
2006,10,10,08,06,2.20
2006,10,10,08,07,2.30
2006,10,10,08,08,2.40
2006,10,10,08,09,2.40
2006,10,10,08,10,2.50
2006,10,10,08,11,2.50
2006,10,10,08,12,2.60
2006,10,10,08,13,2.70
2006,10,10,08,14,2.70
2006,10,10,08,15,2.70
2006,10,10,08,16,2.80
2006,10,10,08,17,2.90
2006,10,10,08,18,3.00
2006,10,10,08,19,3.10
2006,10,10,08,20,3.10
2006,10,10,08,21,3.20
2006,10,10,08,22,3.20
2006,10,10,08,23,3.30
2006,10,10,08,24,3.30
2006,10,10,08,25,3.40
2006,10,10,08,26,3.50
2006,10,10,08,27,3.60
2006,10,10,08,28,3.80
2006,10,10,08,29,3.90
2006,10,10,08,30,4.00
2006,10,10,08,31,4.10
2006,10,10,08,32,4.20
2006,10,10,08,33,4.30
2006,10,10,08,34,4.40
2006,10,10,08,35,4.50
2006,10,10,08,36,4.50
2006,10,10,08,37,4.60
2006,10,10,08,38,4.70
2006,10,10,08,39,4.80
2006,10,10,08,40,4.90
2006,10,10,08,41,5.00
2006,10,10,08,42,5.10
2006,10,10,08,43,5.10
2006,10,10,08,44,5.30
2006,10,10,08,45,5.40
2006,10,10,08,46,5.50
2006,10,10,08,47,5.60
2006,10,10,08,48,5.80
2006,10,10,08,49,5.90
2006,10,10,08,50,6.00
2006,10,10,08,51,6.20
2006,10,10,08,52,6.30
2006,10,10,08,53,6.40
2006,10,10,08,54,6.40
2006,10,10,08,55,6.60
2006,10,10,08,56,6.60
2006,10,10,08,57,6.70
2006,10,10,08,58,6.80
2006,10,10,08,59,6.80
2006,10,10,09,00,6.80
2006,10,10,09,01,6.80
2006,10,10,09,02,6.70
2006,10,10,09,03,6.70
2006,10,10,09,04,6.70
2006,10,10,09,05,6.70
2006,10,10,09,06,6.80
2006,10,10,09,07,6.80
2006,10,10,09,08,6.90
2006,10,10,09,09,7.10
2006,10,10,09,10,7.20
2006,10,10,09,11,7.40
2006,10,10,09,12,7.50
2006,10,10,09,13,7.60
2006,10,10,09,14,7.80
2006,10,10,09,15,7.90
2006,10,10,09,16,8.00
2006,10,10,09,17,8.10
2006,10,10,09,18,8.20
2006,10,10,09,19,8.40
2006,10,10,09,20,8.50
2006,10,10,09,21,8.60
2006,10,10,09,22,8.70
2006,10,10,09,23,8.70
2006,10,10,09,24,8.80
2006,10,10,09,25,8.80
2006,10,10,09,26,8.80
2006,10,10,09,27,8.80
2006,10,10,09,28,8.80
2006,10,10,09,29,8.80
2006,10,10,09,30,8.80
2006,10,10,09,31,8.90
2006,10,10,09,32,8.90
2006,10,10,09,33,8.90
2006,10,10,09,34,8.90
2006,10,10,09,35,8.90
2006,10,10,09,36,9.00
2006,10,10,09,37,9.00
2006,10,10,09,38,9.00
2006,10,10,09,39,9.00
2006,10,10,09,40,9.10
2006,10,10,09,41,9.10
2006,10,10,09,42,9.20
2006,10,10,09,43,9.20
2006,10,10,09,44,9.20
2006,10,10,09,45,9.30
2006,10,10,09,46,9.30
2006,10,10,09,47,9.40
2006,10,10,09,48,9.50
2006,10,10,09,49,9.60
2006,10,10,09,50,9.70
2006,10,10,09,51,9.80
2006,10,10,09,52,9.90
2006,10,10,09,53,10.00
2006,10,10,09,54,10.10
2006,10,10,09,55,10.20
2006,10,10,09,56,10.30
2006,10,10,09,57,10.50
2006,10,10,09,58,10.60
2006,10,10,09,59,10.70
2006,10,10,10,00,10.80
2006,10,10,10,01,10.90
2006,10,10,10,02,11.10
2006,10,10,10,03,11.20
2006,10,10,10,04,11.40
2006,10,10,10,05,11.50
2006,10,10,10,06,11.70
2006,10,10,10,07,11.80
2006,10,10,10,08,11.90
2006,10,10,10,09,11.90
2006,10,10,10,10,12.00
2006,10,10,10,11,12.00
2006,10,10,10,12,12.00
2006,10,10,10,13,12.10
2006,10,10,10,14,12.10
2006,10,10,10,15,12.10
2006,10,10,10,16,12.20
2006,10,10,10,17,12.30
2006,10,10,10,18,12.30
2006,10,10,10,19,12.30
2006,10,10,10,20,12.40
2006,10,10,10,21,12.50
2006,10,10,10,22,12.50
2006,10,10,10,23,12.50
2006,10,10,10,24,12.60
2006,10,10,10,25,12.60
2006,10,10,10,26,12.60
2006,10,10,10,27,12.60
2006,10,10,10,28,12.60
2006,10,10,10,29,12.70
2006,10,10,10,30,12.60
2006,10,10,10,31,12.60
2006,10,10,10,32,12.70
2006,10,10,10,33,12.70
2006,10,10,10,34,12.70
2006,10,10,10,35,12.80
2006,10,10,10,36,12.80
2006,10,10,10,37,12.80
2006,10,10,10,38,12.80
2006,10,10,10,39,12.80
2006,10,10,10,40,12.90
2006,10,10,10,41,13.00
2006,10,10,10,42,13.00
2006,10,10,10,43,13.00
2006,10,10,10,44,13.10
2006,10,10,10,45,13.10
2006,10,10,10,46,13.10
2006,10,10,10,47,13.00
2006,10,10,10,48,13.10
2006,10,10,10,49,13.10
2006,10,10,10,50,13.10
2006,10,10,10,51,13.10
2006,10,10,10,52,13.10
2006,10,10,10,53,13.10
2006,10,10,10,54,13.10
2006,10,10,10,55,13.10
2006,10,10,10,56,13.10
2006,10,10,10,57,13.10
2006,10,10,10,58,13.10
2006,10,10,10,59,13.20
2006,10,10,11,00,13.20
2006,10,10,11,01,13.30
2006,10,10,11,02,13.30
2006,10,10,11,03,13.30
2006,10,10,11,04,13.40
2006,10,10,11,05,13.40
2006,10,10,11,06,13.40
2006,10,10,11,07,13.50
2006,10,10,11,08,13.50
2006,10,10,11,09,13.50
2006,10,10,11,10,13.50
2006,10,10,11,11,13.50
2006,10,10,11,12,13.50
2006,10,10,11,13,13.50
2006,10,10,11,14,13.60
2006,10,10,11,15,13.60
2006,10,10,11,16,13.70
2006,10,10,11,17,13.70
2006,10,10,11,18,13.70
2006,10,10,11,19,13.70
2006,10,10,11,20,13.70
2006,10,10,11,21,13.70
2006,10,10,11,22,13.80
2006,10,10,11,23,13.80
2006,10,10,11,24,13.90
2006,10,10,11,25,13.90
2006,10,10,11,26,14.00
2006,10,10,11,27,14.00
2006,10,10,11,28,14.20
2006,10,10,11,29,14.20
2006,10,10,11,30,14.40
2006,10,10,11,31,14.40
2006,10,10,11,32,14.40
2006,10,10,11,33,14.50
2006,10,10,11,34,14.50
2006,10,10,11,35,14.50
2006,10,10,11,36,14.60
2006,10,10,11,37,14.60
2006,10,10,11,38,14.60
2006,10,10,11,39,14.60
2006,10,10,11,40,14.70
2006,10,10,11,41,14.70
2006,10,10,11,42,14.70
2006,10,10,11,43,14.80
2006,10,10,11,44,14.80
2006,10,10,11,45,14.80
2006,10,10,11,46,14.80
2006,10,10,11,47,14.80
2006,10,10,11,48,14.80
2006,10,10,11,49,14.90
2006,10,10,11,50,14.90
2006,10,10,11,51,14.90
2006,10,10,11,52,14.90
2006,10,10,11,53,14.90
2006,10,10,11,54,14.90
2006,10,10,11,55,14.90
2006,10,10,11,56,14.90
2006,10,10,11,57,14.90
2006,10,10,11,58,15.00
2006,10,10,11,59,15.00
2006,10,10,12,00,15.00
2006,10,10,12,01,15.10
2006,10,10,12,02,15.20
2006,10,10,12,03,15.20
2006,10,10,12,04,15.30
2006,10,10,12,05,15.30
2006,10,10,12,06,15.30
2006,10,10,12,07,15.30
2006,10,10,12,08,15.30
2006,10,10,12,09,15.30
2006,10,10,12,10,15.30
2006,10,10,12,11,15.30
2006,10,10,12,12,15.20
2006,10,10,12,13,15.20
2006,10,10,12,14,15.20
2006,10,10,12,15,15.30
2006,10,10,12,16,15.40
2006,10,10,12,17,15.40
2006,10,10,12,18,15.40
2006,10,10,12,19,15.40
2006,10,10,12,20,15.30
2006,10,10,12,21,15.30
2006,10,10,12,22,15.30
2006,10,10,12,23,15.30
2006,10,10,12,24,15.30
2006,10,10,12,25,15.30
2006,10,10,12,26,15.30
2006,10,10,12,27,15.30
2006,10,10,12,28,15.30
2006,10,10,12,29,15.30
2006,10,10,12,30,15.40
2006,10,10,12,31,15.40
2006,10,10,12,32,15.40
2006,10,10,12,33,15.50
2006,10,10,12,34,15.50
2006,10,10,12,35,15.50
2006,10,10,12,36,15.50
2006,10,10,12,37,15.50
2006,10,10,12,38,15.40
2006,10,10,12,39,15.30
2006,10,10,12,40,15.30
2006,10,10,12,41,15.40
2006,10,10,12,42,15.50
2006,10,10,12,43,15.60
2006,10,10,12,44,15.70
2006,10,10,12,45,15.70
2006,10,10,12,46,15.80
2006,10,10,12,47,15.80
2006,10,10,12,48,15.80
2006,10,10,12,49,15.80
2006,10,10,12,50,15.70
2006,10,10,12,51,15.70
2006,10,10,12,52,15.70
2006,10,10,12,53,15.70
2006,10,10,12,54,15.70
2006,10,10,12,55,15.70
2006,10,10,12,56,15.80
2006,10,10,12,57,15.80
2006,10,10,12,58,15.80
2006,10,10,12,59,15.80
2006,10,10,13,00,15.80
2006,10,10,13,01,15.80
2006,10,10,13,02,15.90
2006,10,10,13,03,15.90
2006,10,10,13,04,15.90
2006,10,10,13,05,15.90
2006,10,10,13,06,15.90
2006,10,10,13,07,15.80
2006,10,10,13,08,15.80
2006,10,10,13,09,15.80
2006,10,10,13,10,15.80
2006,10,10,13,11,15.80
2006,10,10,13,12,15.80
2006,10,10,13,13,15.80
2006,10,10,13,14,15.80
2006,10,10,13,15,15.80
2006,10,10,13,16,15.80
2006,10,10,13,17,15.80
2006,10,10,13,18,15.80
2006,10,10,13,19,15.80
2006,10,10,13,20,15.80
2006,10,10,13,21,15.80
2006,10,10,13,22,15.90
2006,10,10,13,23,15.90
2006,10,10,13,24,15.80
2006,10,10,13,25,15.80
2006,10,10,13,26,15.80
2006,10,10,13,27,15.80
2006,10,10,13,28,15.80
2006,10,10,13,29,15.80
2006,10,10,13,30,15.80
2006,10,10,13,31,15.80
2006,10,10,13,32,15.80
2006,10,10,13,33,15.90
2006,10,10,13,34,16.00
2006,10,10,13,35,16.10
2006,10,10,13,36,16.10
2006,10,10,13,37,16.20
2006,10,10,13,38,16.10
2006,10,10,13,39,16.10
2006,10,10,13,40,16.10
2006,10,10,13,41,16.10
2006,10,10,13,42,16.10
2006,10,10,13,43,16.10
2006,10,10,13,44,16.20
2006,10,10,13,45,16.20
2006,10,10,13,46,16.20
2006,10,10,13,47,16.30
2006,10,10,13,48,16.30
2006,10,10,13,49,16.30
2006,10,10,13,50,16.30
2006,10,10,13,51,16.30
2006,10,10,13,52,16.30
2006,10,10,13,53,16.30
2006,10,10,13,54,16.30
2006,10,10,13,55,16.30
2006,10,10,13,56,16.30
2006,10,10,13,57,16.30
2006,10,10,13,58,16.30
2006,10,10,13,59,16.40
2006,10,10,14,00,16.40
2006,10,10,14,01,16.50
2006,10,10,14,02,16.60
2006,10,10,14,03,16.50
2006,10,10,14,04,16.40
2006,10,10,14,05,16.40
2006,10,10,14,06,16.40
2006,10,10,14,07,16.40
2006,10,10,14,08,16.40
2006,10,10,14,09,16.50
2006,10,10,14,10,16.60
2006,10,10,14,11,16.70
2006,10,10,14,12,16.70
2006,10,10,14,13,16.80
2006,10,10,14,14,16.80
2006,10,10,14,15,16.80
2006,10,10,14,16,16.80
2006,10,10,14,17,16.80
2006,10,10,14,18,16.80
2006,10,10,14,19,16.80
2006,10,10,14,20,16.80
2006,10,10,14,21,16.90
2006,10,10,14,22,16.90
2006,10,10,14,23,16.90
2006,10,10,14,24,16.90
2006,10,10,14,25,16.80
2006,10,10,14,26,16.80
2006,10,10,14,27,16.70
2006,10,10,14,28,16.70
2006,10,10,14,29,16.70
2006,10,10,14,30,16.70
2006,10,10,14,31,16.60
2006,10,10,14,32,16.60
2006,10,10,14,33,16.60
2006,10,10,14,34,16.60
2006,10,10,14,35,16.60
2006,10,10,14,36,16.60
2006,10,10,14,37,16.50
2006,10,10,14,38,16.40
2006,10,10,14,39,16.40
2006,10,10,14,40,16.40
2006,10,10,14,41,16.40
2006,10,10,14,42,16.40
2006,10,10,14,43,16.40
2006,10,10,14,44,16.50
2006,10,10,14,45,16.60
2006,10,10,14,46,16.70
2006,10,10,14,47,16.70
2006,10,10,14,48,16.70
2006,10,10,14,49,16.70
2006,10,10,14,50,16.80
2006,10,10,14,51,16.80
2006,10,10,14,52,16.90
2006,10,10,14,53,16.90
2006,10,10,14,54,16.90
2006,10,10,14,55,16.80
2006,10,10,14,56,16.90
2006,10,10,14,57,16.90
2006,10,10,14,58,16.80
2006,10,10,14,59,16.80
2006,10,10,15,00,16.80
2006,10,10,15,01,16.80
2006,10,10,15,02,16.70
2006,10,10,15,03,16.70
2006,10,10,15,04,16.70
2006,10,10,15,05,16.70
2006,10,10,15,06,16.60
2006,10,10,15,07,16.60
2006,10,10,15,08,16.60
2006,10,10,15,09,16.60
2006,10,10,15,10,16.60
2006,10,10,15,11,16.60
2006,10,10,15,12,16.70
2006,10,10,15,13,16.70
2006,10,10,15,14,16.70
2006,10,10,15,15,16.70
2006,10,10,15,16,16.70
2006,10,10,15,17,16.70
2006,10,10,15,18,16.80
2006,10,10,15,19,16.80
2006,10,10,15,20,16.80
2006,10,10,15,21,16.70
2006,10,10,15,22,16.70
2006,10,10,15,23,16.80
2006,10,10,15,24,16.80
2006,10,10,15,25,16.90
2006,10,10,15,26,16.90
2006,10,10,15,27,16.90
2006,10,10,15,28,16.80
2006,10,10,15,29,16.70
2006,10,10,15,30,16.70
2006,10,10,15,31,16.70
2006,10,10,15,32,16.70
2006,10,10,15,33,16.70
2006,10,10,15,34,16.70
2006,10,10,15,35,16.70
2006,10,10,15,36,16.70
2006,10,10,15,37,16.70
2006,10,10,15,38,16.70
2006,10,10,15,39,16.70
2006,10,10,15,40,16.70
2006,10,10,15,41,16.80
2006,10,10,15,42,16.90
2006,10,10,15,43,16.90
2006,10,10,15,44,17.00
2006,10,10,15,45,17.00
2006,10,10,15,46,17.00
2006,10,10,15,47,17.10
2006,10,10,15,48,17.20
2006,10,10,15,49,17.20
2006,10,10,15,50,17.30
2006,10,10,15,51,17.40
2006,10,10,15,52,17.60
2006,10,10,15,53,17.70
2006,10,10,15,54,17.70
2006,10,10,15,55,17.70
2006,10,10,15,56,17.70
2006,10,10,15,57,17.70
2006,10,10,15,58,17.60
2006,10,10,15,59,17.50
2006,10,10,16,00,17.40
2006,10,10,16,01,17.40
2006,10,10,16,02,17.40
2006,10,10,16,03,17.50
2006,10,10,16,04,17.50
2006,10,10,16,05,17.50
2006,10,10,16,06,17.60
2006,10,10,16,07,17.60
2006,10,10,16,08,17.50
2006,10,10,16,09,17.40
2006,10,10,16,10,17.40
2006,10,10,16,11,17.30
2006,10,10,16,12,17.30
2006,10,10,16,13,17.30
2006,10,10,16,14,17.30
2006,10,10,16,15,17.30
2006,10,10,16,16,17.30
2006,10,10,16,17,17.30
2006,10,10,16,18,17.30
2006,10,10,16,19,17.30
2006,10,10,16,20,17.40
2006,10,10,16,21,17.40
2006,10,10,16,22,17.40
2006,10,10,16,23,17.40
2006,10,10,16,24,17.50
2006,10,10,16,25,17.50
2006,10,10,16,26,17.50
2006,10,10,16,27,17.50
2006,10,10,16,28,17.50
2006,10,10,16,29,17.50
2006,10,10,16,30,17.50
2006,10,10,16,31,17.40
2006,10,10,16,32,17.40
2006,10,10,16,33,17.40
2006,10,10,16,34,17.50
2006,10,10,16,35,17.50
2006,10,10,16,36,17.60
2006,10,10,16,37,17.60
2006,10,10,16,38,17.70
2006,10,10,16,39,17.70
2006,10,10,16,40,17.60
2006,10,10,16,41,17.50
2006,10,10,16,42,17.50
2006,10,10,16,43,17.50
2006,10,10,16,44,17.40
2006,10,10,16,45,17.40
2006,10,10,16,46,17.30
2006,10,10,16,47,17.10
2006,10,10,16,48,17.10
2006,10,10,16,49,16.90
2006,10,10,16,50,16.80
2006,10,10,16,51,16.70
2006,10,10,16,52,16.60
2006,10,10,16,53,16.60
2006,10,10,16,54,16.50
2006,10,10,16,55,16.40
2006,10,10,16,56,16.50
2006,10,10,16,57,16.60
2006,10,10,16,58,16.60
2006,10,10,16,59,16.50
2006,10,10,17,00,16.40
2006,10,10,17,01,16.50
2006,10,10,17,02,16.60
2006,10,10,17,03,16.60
2006,10,10,17,04,16.60
2006,10,10,17,05,16.60
2006,10,10,17,06,16.60
2006,10,10,17,07,16.40
2006,10,10,17,08,16.40
2006,10,10,17,09,16.40
2006,10,10,17,10,16.40
2006,10,10,17,11,16.40
2006,10,10,17,12,16.30
2006,10,10,17,13,16.30
2006,10,10,17,14,16.30
2006,10,10,17,15,16.30
2006,10,10,17,16,16.30
2006,10,10,17,17,16.20
2006,10,10,17,18,16.30
2006,10,10,17,19,16.30
2006,10,10,17,20,16.40
2006,10,10,17,21,16.40
2006,10,10,17,22,16.40
2006,10,10,17,23,16.40
2006,10,10,17,24,16.40
2006,10,10,17,25,16.30
2006,10,10,17,26,16.20
2006,10,10,17,27,16.10
2006,10,10,17,28,16.10
2006,10,10,17,29,15.90
2006,10,10,17,30,15.80
2006,10,10,17,31,15.70
2006,10,10,17,32,15.60
2006,10,10,17,33,15.50
2006,10,10,17,34,15.50
2006,10,10,17,35,15.40
2006,10,10,17,36,15.40
2006,10,10,17,37,15.30
2006,10,10,17,38,15.30
2006,10,10,17,39,15.40
2006,10,10,17,40,15.40
2006,10,10,17,41,15.40
2006,10,10,17,42,15.50
2006,10,10,17,43,15.40
2006,10,10,17,44,15.40
2006,10,10,17,45,15.40